Overview Statistics Trail Chart Weather Telemetry Raw packets
 

This is the latest recevied weather packets stored in our database for station/object SR3WXA. If no packets are shown the sender has not sent any weather packets the latest 10 day(s).

<< 1 2 3 4 >>
Time Temp. Humidity Pressure Rain* Wind** Luminosity Snow
1788612433 18.89° C 81% 1013.9 hPa 0.25 mm - 745 W/m² -
1788612354 18.89° C 81% 1013.9 hPa 0.25 mm - 745 W/m² -
1788611874 17.78° C 84% 1013.8 hPa 0.25 mm - 649 W/m² -
1788611802 17.78° C 84% 1013.8 hPa 0.25 mm - 649 W/m² -
1788611550 17.78° C 87% 1013.9 hPa 0.51 mm - 606 W/m² -
1788611502 17.78° C 87% 1013.9 hPa 0.51 mm - 606 W/m² -
1788611260 17.22° C 88% 1013.9 hPa 0.51 mm - 571 W/m² -
1788611202 17.22° C 88% 1013.9 hPa 0.51 mm - 571 W/m² -
1788610902 16.67° C 90% 1013.9 hPa 0.51 mm - 522 W/m² -
1788610674 16.11° C 91% 1014 hPa 0.25 mm - 621 W/m² -
1788610602 16.11° C 91% 1014 hPa 0.25 mm - 621 W/m² -
1788610398 16.11° C 92% 1014.1 hPa 0.25 mm - 731 W/m² -
1788610302 16.11° C 92% 1014.1 hPa 0.25 mm - 731 W/m² -
1788610149 15.56° C 92% 1014.1 hPa 0.25 mm - 156 W/m² -
1788610002 15.56° C 92% 1014.1 hPa 0.25 mm - 156 W/m² -
1788609748 15.56° C 93% 1014.1 hPa 0.25 mm - 144 W/m² -
1788609702 15.56° C 93% 1014.1 hPa 0.25 mm - 144 W/m² -
1788609472 15° C 92% 1014.1 hPa 0.25 mm - 606 W/m² -
1788609402 15° C 92% 1014.1 hPa 0.25 mm - 606 W/m² -
1788608900 14.44° C 91% 1014.2 hPa 0.25 mm - 209 W/m² -
1788608811 14.44° C 91% 1014.2 hPa 0.25 mm - 209 W/m² -
1788608324 14.44° C 90% 1014.4 hPa 0.25 mm - 105 W/m² -
1788608212 14.44° C 90% 1014.4 hPa 0.25 mm - 105 W/m² -
1788607969 14.44° C 90% 1014.5 hPa 0 mm - 111 W/m² -
1788607912 14.44° C 90% 1014.5 hPa 0 mm - 111 W/m² -

* Rain latest hour (hover to see other rain measurements)
** Current wind speed in m/s (hover to see current wind gust speed)